Wind_Speed
2 2 3 3 3 4 4 5 5 5 5 6 6 6 5 5 5 5 4 5 6 7 8 7 7 6 7 7 8 7 7 6 5 4 4 4 4 4 4 4 4 4 3
3 3 4 4 4 4 5 6 6 6 5 6 5 5 4 4 4 3 4 5 7 7 8 8 7 7 7 8 8 8 7 6 6 5 5 5 5 5 5 4 4 4 4
3 4 4 4 5 5 6 6 7 6 6 6 5 4 4 4 3 2 5 5 6 7 8 8 8 7 7 7 8 8 8 7 7 6 6 6 7 7 6 6 6 5 5
4 4 5 5 6 7 7 7 6 6 6 6 5 5 5 4 2 3 4 5 6 6 7 8 9 9 8 8 9 10 9 9 8 8 7 7 7 7 8 8 8 7 7
5 5 6 6 7 7 7 7 7 7 7 6 6 6 6 5 4 3 4 5 6 6 7 9 9 10 9 9 9 10 11 10 9 9 9 8 8 7 8 9 9 8 8
5 6 6 6 7 7 7 7 7 7 8 7 7 7 7 6 6 5 5 6 7 7 8 9 10 10 11 11 11 11 11 11 11 11 10 9 8 8 9 9 9 9 9
6 7 6 7 7 7 7 8 8 8 8 8 8 7 8 8 7 6 7 8 8 8 9 10 11 12 13 12 11 12 12 11 13 12 11 9 9 8 8 9 9 9 9
7 7 7 8 7 7 8 9 9 9 9 9 8 8 8 8 8 7 7 7 7 8 10 10 10 11 12 12 12 12 13 12 12 11 11 10 9 9 8 8 8 9 9
7 8 8 8 8 8 9 9 9 9 9 9 8 8 8 8 8 8 7 8 9 10 10 10 11 11 11 11 11 11 12 11 11 10 9 8 9 8 8 7 7 8 8
8 9 9 8 8 9 9 9 9 9 8 8 9 9 8 8 8 8 8 8 9 10 11 11 11 11 11 10 10 11 11 11 10 9 9 8 8 8 8 7 7 7 8
10 10 10 9 9 9 9 9 9 9 9 9 9 9 9 9 8 8 8 8 9 8 9 10 10 9 9 9 9 10 10 10 10 9 9 9 9 8 8 8 9 8 9
11 10 10 10 9 9 9 9 9 10 10 10 10 9 10 10 9 8 9 9 8 7 7 8 8 9 9 8 8 8 9 9 8 8 8 9 8 8 8 9 9 10 10
11 11 11 10 10 10 10 10 10 10 10 10 10 10 10 10 10 9 9 9 8 7 7 8 8 8 9 8 8 8 8 8 8 9 8 8 9 9 9 9 10 10 11
10 10 10 11 10 11 11 11 11 11 11 11 11 11 11 11 11 11 10 9 9 8 8 8 8 8 9 9 8 9 9 9 9 9 9 10 10 10 10 10 10 11 11
9 10 10 10 11 11 11 10 11 11 11 11 11 11 11 11 12 11 11 10 9 9 9 9 9 9 9 9 9 9 9 10 10 11 11 11 11 11 11 11 10 10 10
10 10 10 10 11 11 11 11 12 11 12 12 12 12 12 11 12 12 11 10 9 9 9 9 9 9 10 10 10 9 9 10 10 10 10 11 11 11 10 10 10 10 10
10 11 11 11 12 12 12 12 12 13 13 13 13 13 12 12 12 12 11 10 10 9 9 9 8 9 10 10 10 10 10 10 10 10 10 11 11 11 10 10 10 10 10
12 12 12 12 13 13 13 13 13 13 13 13 13 13 13 12 12 12 11 11 10 10 9 9 9 10 10 11 11 11 11 11 10 10 11 11 11 11 11 11 11 11 11
12 13 13 13 13 13 13 13 13 13 13 13 14 13 12 12 12 12 12 11 10 10 10 10 11 11 11 11 11 11 11 12 11 11 11 12 12 12 12 12 12 12 12
13 13 14 14 14 14 14 13 13 13 14 14 14 13 13 12 12 12 11 11 10 10 10 10 11 11 11 11 11 11 12 12 12 12 12 12 13 13 13 13 14 14 14
13 14 14 15 14 13 14 14 15 15 14 14 14 13 13 12 12 12 12 11 11 10 10 11 11 11 11 11 12 12 12 13 13 13 13 12 12 13 13 13 13 13 13
14 14 15 15 15 14 14 15 15 15 15 14 14 13 13 12 12 11 11 11 11 11 11 12 12 13 13 13 13 13 12 12 13 13 13 13 12 12 12 13 13 13 14
15 15 16 16 15 15 15 15 14 14 14 14 13 13 13 13 12 12 11 12 11 11 12 12 13 13 13 14 13 13 12 13 13 13 13 13 14 14 14 14 15 15 15
16 16 16 16 16 15 15 15 14 14 13 13 13 13 13 13 12 12 12 12 12 13 13 13 13 13 13 14 14 14 14 13 14 14 14 15 15 16 16 17 17 16 16
17 16 17 17 17 16 16 16 15 15 14 14 14 14 14 13 13 13 14 13 14 14 14 13 13 13 14 15 15 15 15 15 15 15 15 16 17 17 17 17 18 18 17
17 17 17 18 17 17 17 16 16 16 15 15 15 14 14 13 14 14 15 14 15 15 14 14 14 14 15 15 16 16 16 16 16 17 17 17 18 18 18 18 19 19 19
Wind_Direction
297 322 323 326 329 336 337 338 337 326 322 323 328 322 314 308 291 253 236 220 220 216 218 217 218 221 218 212 210 215 220 229 214 212 221 218 218 223 228 232 237 234 228
288 304 311 313 316 321 322 326 330 332 321 322 335 333 324 320 313 241 222 223 224 221 223 223 223 228 226 220 217 219 220 222 221 228 237 238 238 240 241 242 240 234 234
299 304 301 304 308 310 314 318 325 328 325 323 326 338 336 331 319 249 222 233 228 227 224 227 225 228 232 228 225 224 224 226 230 232 240 244 246 242 243 244 241 241 240
302 304 302 300 305 309 311 313 319 322 323 326 324 322 336 331 320 253 229 238 233 231 228 232 232 233 236 235 234 229 228 230 235 238 241 246 248 249 246 244 245 246 246
302 301 300 300 303 308 312 313 316 318 320 323 326 326 330 326 314 284 252 246 242 240 238 238 239 237 240 245 242 234 232 233 237 240 242 246 253 261 255 249 248 249 250
300 303 300 301 302 306 311 313 314 313 315 316 322 327 326 319 302 290 278 265 259 252 250 248 248 246 245 249 249 242 238 238 240 243 246 249 257 264 262 253 248 248 249
301 302 300 301 304 303 305 307 308 309 311 312 318 321 320 320 310 296 285 280 272 265 258 253 252 250 249 250 252 246 243 244 242 244 251 256 262 269 266 258 249 249 248
301 303 303 301 300 301 305 307 308 307 306 308 309 314 316 316 311 300 292 278 270 266 262 257 252 249 249 251 252 251 245 245 245 251 255 257 264 266 266 259 248 249 249
295 299 301 302 298 297 298 300 304 305 302 305 307 311 312 309 307 300 293 289 281 273 264 255 253 252 250 248 251 251 250 249 247 247 253 258 264 264 259 255 253 257 255
292 293 297 299 298 296 297 298 299 304 304 304 307 308 310 308 305 299 294 298 296 283 270 255 248 247 247 248 248 249 249 249 248 247 251 256 262 263 259 257 258 265 263
291 293 294 296 298 299 299 300 299 301 302 302 304 302 301 306 304 299 300 300 301 292 272 254 250 249 248 251 251 249 251 253 252 251 248 254 260 260 262 259 261 266 267
291 294 295 295 295 297 300 300 299 298 300 300 298 299 297 299 301 299 298 298 297 291 274 257 250 248 249 252 256 254 257 253 252 252 249 251 256 262 262 262 263 265 268
289 293 294 295 296 295 296 297 297 298 298 298 296 294 296 295 295 295 295 293 290 282 270 254 251 248 248 251 253 255 256 253 255 253 252 254 257 262 264 269 272 273 273
291 292 292 293 295 294 293 293 294 296 296 295 294 296 297 295 294 292 289 288 284 280 274 263 255 254 254 251 255 261 263 264 265 261 261 262 263 263 265 268 272 278 281
294 294 292 291 292 292 291 293 294 295 295 297 297 297 298 296 293 293 290 286 281 276 272 268 261 257 258 255 255 261 263 267 269 267 265 264 265 268 269 272 277 281 283
292 293 292 292 291 290 289 291 293 293 294 294 293 293 295 293 290 292 289 286 280 273 273 272 266 259 258 258 259 260 264 267 268 268 264 265 267 269 271 274 275 278 282
290 292 291 291 291 291 289 289 291 292 292 292 292 292 292 292 289 288 286 283 281 275 272 271 270 263 260 261 264 268 268 270 273 271 267 266 269 270 272 274 276 278 280
291 293 291 289 290 291 290 289 288 290 292 293 293 293 292 292 288 286 282 280 281 279 275 274 276 271 267 266 266 267 267 270 274 274 275 271 269 269 270 273 274 279 281
290 291 289 288 290 292 292 292 291 291 292 294 294 294 292 292 291 288 284 278 278 279 277 277 282 276 273 271 269 268 270 271 273 273 273 272 271 270 270 273 278 283 284
286 287 286 286 286 290 294 294 294 294 293 293 293 292 290 290 288 286 284 278 277 280 280 278 280 281 275 270 270 270 272 273 273 271 271 271 271 271 271 276 280 283 284
281 282 283 285 287 292 294 295 295 296 295 294 293 290 288 288 286 285 283 282 279 279 281 281 280 282 279 277 274 273 275 274 273 273 272 272 272 275 274 276 279 280 284
280 280 280 283 284 289 292 295 294 294 295 294 293 289 286 287 284 282 282 280 277 277 278 280 281 279 275 276 276 275 273 272 273 273 274 275 276 276 276 276 279 283 285
278 278 279 281 283 286 290 293 293 293 294 293 290 285 282 282 280 278 277 278 277 279 279 279 279 276 274 275 274 273 273 270 269 270 272 274 275 275 276 276 278 281 282
277 277 279 281 282 284 288 288 292 292 292 292 288 285 280 278 278 275 276 278 278 280 282 284 279 277 275 276 275 272 273 272 270 271 272 272 272 273 274 275 277 278 279
276 276 277 279 282 283 285 286 291 292 292 288 286 283 280 278 277 276 276 277 278 278 280 283 282 278 277 276 274 274 274 272 271 271 272 273 275 275 274 275 275 276 278
274 275 276 278 280 283 284 286 289 289 288 285 285 281 279 278 278 278 277 276 280 280 278 280 281 281 279 277 275 274 274 274 273 272 272 272 274 275 277 277 277 277 277
Height
5874 5874 5874 5873 5873 5873 5872 5871 5871 5870 5869 5868 5867 5865 5863 5862 5860 5860 5860 5862 5863 5865 5866 5867 5868 5868 5869 5869 5870 5871 5872 5872 5873 5874 5875 5875 5876 5876 5877 5877 5878 5878 5879
5874 5873 5873 5873 5873 5872 5872 5871 5870 5869 5868 5867 5866 5864 5862 5861 5858 5857 5860 5862 5863 5864 5865 5866 5867 5868 5868 5869 5870 5870 5871 5872 5873 5874 5874 5875 5875 5876 5876 5876 5877 5877 5878
5873 5873 5873 5873 5872 5872 5871 5871 5870 5869 5868 5867 5866 5864 5862 5860 5858 5857 5860 5862 5863 5864 5865 5865 5866 5867 5867 5868 5869 5870 5871 5872 5872 5873 5873 5874 5874 5874 5875 5875 5875 5876 5877
5873 5873 5872 5872 5871 5871 5870 5870 5869 5869 5868 5866 5865 5864 5863 5862 5860 5860 5860 5861 5862 5863 5864 5864 5865 5866 5867 5867 5868 5869 5870 5871 5871 5872 5872 5873 5873 5873 5873 5874 5874 5875 5875
5873 5872 5872 5871 5871 5870 5870 5869 5868 5868 5867 5866 5865 5864 5864 5863 5862 5862 5861 5861 5861 5862 5863 5863 5864 5865 5866 5866 5867 5868 5869 5869 5870 5871 5871 5872 5872 5872 5872 5871 5872 5873 5874
5872 5872 5871 5870 5870 5869 5869 5868 5868 5867 5867 5866 5865 5864 5864 5863 5862 5862 5861 5861 5861 5861 5862 5862 5863 5863 5864 5865 5866 5867 5867 5868 5869 5870 5870 5870 5870 5870 5869 5868 5869 5871 5872
5871 5871 5870 5869 5869 5868 5868 5867 5867 5866 5866 5865 5864 5864 5863 5863 5862 5861 5861 5860 5860 5860 5860 5860 5861 5861 5862 5863 5864 5865 5866 5867 5867 5868 5868 5868 5868 5867 5865 5865 5866 5869 5870
5870 5870 5869 5868 5868 5867 5867 5866 5866 5865 5865 5864 5863 5863 5862 5862 5861 5861 5860 5859 5859 5858 5857 5857 5858 5860 5860 5861 5863 5863 5864 5865 5866 5866 5867 5867 5866 5865 5864 5864 5865 5867 5869
5869 5869 5868 5867 5867 5866 5866 5865 5865 5864 5864 5863 5862 5862 5861 5861 5860 5859 5859 5858 5857 5856 5855 5854 5856 5858 5859 5860 5861 5862 5862 5863 5864 5864 5865 5865 5865 5865 5865 5864 5865 5867 5868
5867 5867 5867 5866 5865 5865 5864 5864 5863 5863 5862 5862 5861 5861 5860 5859 5859 5858 5857 5856 5854 5852 5850 5851 5854 5856 5857 5858 5859 5860 5861 5861 5862 5863 5863 5864 5864 5864 5864 5865 5865 5866 5867
5866 5866 5865 5865 5864 5863 5862 5862 5862 5861 5861 5860 5860 5859 5858 5858 5857 5856 5855 5854 5852 5849 5846 5848 5851 5854 5856 5857 5857 5858 5859 5860 5861 5862 5862 5862 5863 5863 5863 5864 5865 5865 5865
5864 5864 5863 5863 5862 5862 5861 5860 5860 5860 5859 5859 5858 5858 5857 5856 5856 5855 5854 5853 5851 5849 5847 5848 5850 5853 5854 5855 5856 5856 5857 5858 5859 5860 5860 5861 5861 5862 5862 5863 5864 5864 5864
5862 5862 5861 5861 5860 5860 5859 5859 5858 5858 5858 5857 5857 5856 5855 5855 5854 5853 5852 5851 5850 5849 5848 5848 5850 5851 5852 5853 5854 5855 5856 5857 5857 5858 5859 5859 5860 5860 5861 5861 5861 5862 5862
5860 5860 5859 5859 5858 5858 5857 5857 5856 5856 5855 5855 5854 5854 5854 5853 5852 5852 5851 5850 5849 5848 5848 5848 5849 5850 5851 5852 5853 5853 5854 5855 5856 5856 5857 5858 5858 5858 5859 5859 5860 5860 5860
5858 5858 5857 5857 5857 5856 5855 5855 5854 5854 5853 5853 5852 5852 5851 5851 5850 5849 5849 5848 5847 5847 5847 5847 5848 5849 5849 5850 5851 5852 5852 5853 5854 5854 5855 5855 5856 5856 5857 5857 5858 5858 5858
5856 5856 5856 5855 5854 5854 5853 5853 5852 5852 5851 5850 5850 5849 5849 5848 5848 5847 5846 5846 5845 5845 5845 5846 5846 5847 5847 5848 5849 5850 5850 5851 5852 5852 5853 5853 5854 5854 5855 5855 5856 5856 5856
5854 5854 5853 5853 5852 5851 5851 5850 5850 5849 5849 5848 5847 5847 5846 5845 5845 5844 5844 5844 5844 5843 5843 5844 5844 5845 5846 5846 5847 5848 5848 5849 5850 5850 5851 5851 5852 5852 5853 5853 5854 5854 5854
5852 5851 5851 5850 5849 5849 5848 5848 5847 5846 5846 5845 5844 5844 5843 5843 5842 5842 5842 5842 5842 5842 5842 5842 5843 5843 5844 5844 5845 5846 5846 5847 5847 5848 5848 5849 5849 5850 5851 5851 5851 5852 5852
5849 5849 5848 5847 5847 5846 5845 5845 5844 5843 5843 5842 5842 5841 5841 5840 5840 5839 5839 5839 5839 5840 5840 5840 5840 5841 5841 5842 5843 5844 5844 5845 5845 5845 5846 5847 5847 5848 5848 5848 5849 5849 5850
5846 5845 5845 5844 5844 5843 5842 5842 5841 5840 5840 5839 5838 5838 5838 5838 5837 5837 5837 5837 5837 5837 5837 5838 5838 5838 5839 5840 5840 5841 5842 5842 5843 5843 5843 5844 5844 5845 5846 5846 5846 5847 5847
5843 5842 5841 5841 5840 5838 5839 5839 5838 5837 5836 5836 5835 5835 5835 5835 5835 5835 5834 5835 5835 5835 5835 5835 5835 5835 5836 5837 5838 5838 5839 5839 5840 5840 5840 5841 5842 5842 5843 5843 5843 5844 5844
5840 5839 5838 5837 5837 5837 5836 5836 5835 5834 5833 5833 5832 5831 5832 5832 5832 5832 5832 5832 5832 5832 5832 5832 5832 5833 5833 5834 5835 5835 5836 5837 5837 5838 5838 5838 5839 5839 5840 5840 5840 5841 5841
5837 5836 5835 5835 5834 5834 5833 5833 5832 5831 5830 5829 5829 5829 5829 5829 5829 5829 5829 5829 5829 5829 5829 5829 5829 5830 5830 5831 5831 5832 5833 5834 5834 5835 5835 5835 5836 5836 5836 5837 5837 5837 5837
5833 5832 5832 5831 5831 5831 5830 5829 5828 5828 5827 5826 5826 5826 5826 5826 5826 5826 5826 5826 5826 5826 5826 5826 5826 5826 5827 5828 5828 5829 5830 5830 5831 5831 5832 5832 5832 5833 5833 5833 5833 5833 5833
5829 5829 5828 5828 5827 5827 5827 5826 5825 5824 5824 5823 5823 5823 5823 5823 5823 5823 5823 5823 5823 5823 5823 5823 5823 5823 5824 5824 5825 5825 5826 5826 5827 5828 5828 5828 5829 5829 5829 5829 5829 5829 5829
5825 5825 5824 5824 5823 5823 5823 5822 5822 5821 5821 5820 5819 5819 5820 5820 5820 5820 5820 5820 5820 5820 5820 5820 5820 5820 5820 5820 5821 5821 5822 5822 5823 5823 5824 5824 5824 5824 5824 5824 5825 5825 5825